This demonstration page uses our WeatherBlox Daily Observations layout. Learn more.

Left ArrowRight Arrow

Hourly Observations for February 11, 2017

Temp ( °F °C ) Dew Point ( °F °C ) Humidity (%) Winds ( mph kmh ) Pressure ( in mb ) Visibility ( mi km ) Precip ( " mm )
12:53 am 00:53 Clear 50 10 38 3.3 63 63 E 7 11 29.91 1013 10 16 0.00 0.00
1:53 am 01:53 Clear 49 9.4 38 3.3 66 66 Calm 29.91 1013 10 16 0.00 0.00
2:53 am 02:53 Clear 44 6.7 37 2.8 76 76 N 5 7 29.91 1013 10 16 0.00 0.00
3:53 am 03:53 Clear 42 5.6 37 2.8 82 82 N 7 11 29.91 1013 10 16 0.00 0.00
4:53 am 04:53 Clear 41 5 35 1.7 79 79 N 7 11 29.91 1013 10 16 0.00 0.00
5:53 am 05:53 Clear 40 4.4 35 1.7 83 83 N 6 9 29.92 1013 10 16 0.00 0.00
6:53 am 06:53 Clear 40 4.4 35 1.7 83 83 NNW 7 11 29.95 1014 10 16 0.00 0.00
7:53 am 07:53 Sunny 39 3.9 34 1.1 82 82 NNE 3 6 29.97 1015 10 16 0.00 0.00
8:53 am 08:53 Sunny 52 11.1 44 6.7 75 75 Calm 29.97 1015 10 16 0.00 0.00
9:53 am 09:53 Sunny 64 17.8 42 5.6 45 45 Calm 29.97 1015 10 16 0.00 0.00
10:53 am 10:53 Sunny 75 23.9 37 2.8 25 25 W 7 11 29.95 1014 10 16 0.00 0.00
11:53 am 11:53 Sunny 83 28.3 31 -0.6 15 15 WSW 13 20 29.94 1014 10 16 0.00 0.00
12:53 pm 12:53 Sunny 87 30.6 30 -1.1 13 13 WSW 13 20 29.91 1013 10 16 0.00 0.00
1:53 pm 13:53 Sunny 90 32.2 23 -5 9 9 WSW 14 22 29.87 1011 10 16 0.00 0.00
2:53 pm 14:53 Sunny 91 32.8 22 -5.6 8 8 W 17 28 29.84 1011 10 16 0.00 0.00
3:53 pm 15:53 Sunny 92 33.3 22 -5.6 8 8 W 15 24 29.82 1010 10 16 0.00 0.00
4:53 pm 16:53 Sunny 90 32.2 22 -5.6 8 8 W 13 20 29.82 1010 10 16 0.00 0.00
5:53 pm 17:53 Sunny 87 30.6 24 -4.4 10 10 W 9 15 29.83 1010 10 16 0.00 0.00
6:53 pm 18:53 Clear 77 25 27 -2.8 16 16 NW 7 11 29.85 1011 10 16 0.00 0.00
7:53 pm 19:53 Clear 72 22.2 27 -2.8 19 19 NE 5 7 29.88 1012 10 16 0.00 0.00
8:53 pm 20:53 Clear 69 20.6 28 -2.2 22 22 SE 12 19 29.90 1013 10 16 0.00 0.00
9:53 pm 21:53 Clear 66 18.9 30 -1.1 26 26 ESE 8 13 29.89 1012 10 16 0.00 0.00
10:53 pm 22:53 Clear 65 18.3 36 2.2 34 34 ESE 8 13 29.88 1012 10 16 0.00 0.00
11:53 pm 23:53 Clear 57 13.9 32 0 39 39 NNW 9 15 29.91 1013 10 16 0.00 0.00

Powered by AerisWeather